This is the latest recevied weather packets stored in our database for station/object SQ7RAF-15. If no packets are shown the sender has not sent any weather packets the latest 1 day(s).
| Time | Temp. | Humidity | Pressure | Rain* | Wind** | Luminosity | Snow |
|---|---|---|---|---|---|---|---|
| 1778011240 | 17.22° C | 71% | 1005.5 hPa | 0 mm | 0 m/s | 0 W/m² | - |
| 1778010921 | 17.22° C | 69% | 1005.5 hPa | 0 mm | 0.45 m/s, 323° | 0 W/m² | - |
| 1778010632 | 16.67° C | 65% | 1005.4 hPa | 0 mm | 0.45 m/s, 318° | 0 W/m² | - |
| 1778010344 | 17.22° C | 62% | 1005.3 hPa | 0 mm | 0 m/s | 0 W/m² | - |
| 1778010024 | 17.78° C | 62% | 1005.5 hPa | 0 mm | 0.45 m/s, 317° | 0 W/m² | - |
| 1778009736 | 17.22° C | 60% | 1005.4 hPa | 0 mm | 0.45 m/s, 316° | 0 W/m² | - |
| 1778009416 | 16.67° C | 59% | 1005.3 hPa | 0 mm | 0.45 m/s, 334° | 0 W/m² | - |
| 1778009129 | 16.67° C | 60% | 1005.4 hPa | 0 mm | 0.45 m/s, 320° | 0 W/m² | - |
| 1778008840 | 16.67° C | 58% | 1005.2 hPa | 0 mm | 0.89 m/s, 322° | 0 W/m² | - |
| 1778008520 | 16.67° C | 57% | 1005.2 hPa | 0 mm | 0.45 m/s, 327° | 0 W/m² | - |
| 1778007944 | 17.22° C | 56% | 1005.1 hPa | 0 mm | 0 m/s | 0 W/m² | - |
| 1778007640 | 17.78° C | 55% | 1005 hPa | 0 mm | 0.45 m/s, 325° | 0 W/m² | - |
| 1778007320 | 17.78° C | 55% | 1005 hPa | 0 mm | 0.45 m/s, 327° | 0 W/m² | - |
| 1778007032 | 17.78° C | 54% | 1005.1 hPa | 0 mm | 0.45 m/s, 325° | 0 W/m² | - |
| 1778006744 | 17.78° C | 55% | 1005.1 hPa | 0 mm | 0 m/s | 0 W/m² | - |
| 1778005240 | 18.33° C | 55% | 1004.9 hPa | 0 mm | 0 m/s | 0 W/m² | - |
| 1778001020 | 24.44° C | 36% | 1004.7 hPa | 0 mm | 0 m/s | 28 W/m² | - |
| 1778000728 | 24.44° C | 35% | 1004.7 hPa | 0 mm | 0 m/s | 30 W/m² | - |
| 1778000440 | 25° C | 34% | 1004.7 hPa | 0 mm | 0 m/s | 32 W/m² | - |
| 1778000120 | 25° C | 34% | 1004.7 hPa | 0 mm | 0.45 m/s, 318° | 35 W/m² | - |
| 1777999833 | 25° C | 33% | 1004.8 hPa | 0 mm | 0.45 m/s, 299° | 36 W/m² | - |
| 1777999534 | 25° C | 33% | 1004.7 hPa | 0 mm | 0.45 m/s, 314° | 37 W/m² | - |
| 1777999240 | 25° C | 33% | 1004.8 hPa | 0 mm | 0.89 m/s, 328° | 40 W/m² | - |
| 1777998920 | 25° C | 32% | 1004.9 hPa | 0 mm | 0.45 m/s, 309° | 38 W/m² | - |
| 1777998632 | 25.56° C | 32% | 1004.8 hPa | 0 mm | 0.89 m/s, 320° | 37 W/m² | - |
* Rain latest hour (hover to see other rain measurements)
** Current wind speed in m/s (hover to see current wind gust speed)